STARLINK-1358, 45566

Orbit data source: Space-Track

STARLINK-1358, 45566 is a payload satellite owned by SpaceX/Seattle (US) in LEO that was launched on Wed, 22 Apr 2020 UTC via an FALCON 9 launch vehicle from the Air Force Eastern Test Range (AFETR). Payload-class satellites include a variety of spacecraft equipped with specific instruments for various scientific and technological missions. These include communications satellites like Starlink; space stations such as the ISS; scientific satellites like the Hubble; Earth observation satellites from companies like Planet Labs, Umbra, and HawkEye 360; GPS; miniature CubeSats for education and research; and military/defense satellites.

Not visible in the next 10 days
Identifier
45566, 2020-025AM
Orbit
LEO
Last TLE update
18 hours ago
Origin
Manufacturer
SpaceX/Seattle
Mission
Partially operational Commercial Communications
Bus & Motor
STARLINK, Unknown motor
Mass
260 kg wet, ~248 kg dry
Launch date (UTC)
2020-04-22 (5 years ago)
Launch vehicle
FALCON 9
Launch site
Air Force Eastern Test Range (AFETR)
Object type
Payload
Rocket body
Debris
Shape & HBR
Box + 1 Pan, 8.86 m
Radar Cross Section
13.562 m², Large (>1 m²)

Expand to show TLE details & history

TLE from 18 hours ago
0 STARLINK-1358
1 45566U 20025AM  25128.55709196  .00992118  65665-3  70303-3 0  9992
2 45566  53.0358 313.1744 0008628 260.7332 203.5643 16.15546489279619
Epoch: 2025-05-08T13:22Z
Definitive object data (Epoch: 2025-05-08T13:22:12.745Z)
Latitude
50.90571°
Longitude
-1.07056°
Altitude
242.875 km
Speed
7.764 km/s
True Right ascension
04h 24m 26s
True Declination
50° 43' 27"
Sunlit
Object was in daylight at TLE epoch
Visualization TLE readout
Latitude
52.96379°
Longitude
-20.53817°
Altitude
239.043 km
Speed
7.767 km/s
Apparent Right ascension
03h 12m 24s
Apparent Declination
7° 36' 43"
Sunlit
Object is in daylight
Visualization observer readout
Local Sidereal Time
15:17:10
Azimuth
1.601° NNE
Elevation
-42.459°
Doppler factor
1
Orbital elements
Apogee altitude
237.661 km
Perigee altitude
226.255 km
Semi-major axis
6,610.095 km
Eccentricity
0.0008628
Inclination
53.0358°
RAAN
313.1744°
Arg. of periapsis
260.7332°
True anomaly
203.52481°
Mean anomaly
203.5643°
Eccentric anomaly
203.54455°
Mean motion
4.03861 °/min
BSTAR
0.00070303
Orbital period
89.14 mins
Loading maneuver chart data...
Loading SW <> Apogee altitude chart data...
Loading historical data...
Loading historical data...
Loading historical data...
Loading historical data...
Loading historical data...
Loading historical data...
Loading historical data...

STARLINK-1358 Visibility forecast

Observer location: undefined°, undefined°

STARLINK-1358 is not visible in the next 10 days
Span
Click to sort rows by Start time (UTC) header in descending order
Start Az.
Max El. time (UTC)
Max El. Az.
Max El.
End time (UTC)
End Az.
|